When you browse on this site, cookies collect data to enhance your experience and personalize the content and advertising you see.
Visit our Privacy Policy to learn more. By continuing to use the site, you agree to this use of cookies and data.
  • en France
  • Liste des pays
  • À 7 jours
  • Température de l'eau
  • Carte météo
  • Widgets météo
  • user-avatar
    Se connecter

    Météo par heure à Jastrzebiec

    Ce jour, 29 Février, Samedi

    Heure Température Précipitation Vent Pression Humidité
    00:00 -1°C° 0 mm 5 m/s 744 mmHg 90%
    01:00 -1°C° 0 mm 5 m/s 745 mmHg 92%
    02:00 -2°C° 0 mm 5 m/s 744 mmHg 92%
    03:00 -2°C° 0 mm 4 m/s 744 mmHg 92%
    04:00 -2°C° 0 mm 4 m/s 744 mmHg 93%
    05:00 -2°C° 0 mm 4 m/s 743 mmHg 92%
    06:00 -1°C° 0 mm 3 m/s 743 mmHg 92%
    07:00 -1°C° 0 mm 3 m/s 743 mmHg 92%
    08:00 -1°C° 0 mm 4 m/s 743 mmHg 82%
    09:00 +1°C° 0 mm 5 m/s 742 mmHg 72%
    10:00 +2°C° 0 mm 6 m/s 742 mmHg 62%
    11:00 +2°C° 0 mm 7 m/s 741 mmHg 59%
    12:00 +3°C° 0 mm 7 m/s 741 mmHg 56%
    13:00 +4°C° 0 mm 7 m/s 740 mmHg 53%
    14:00 +3°C° 0 mm 7 m/s 739 mmHg 62%
    15:00 +2°C° 0 mm 7 m/s 739 mmHg 71%
    16:00 0°C° 0 mm 7 m/s 738 mmHg 80%
    17:00 0°C° 0.1 mm 7 m/s 738 mmHg 82%
    18:00 0°C° 0.1 mm 7 m/s 737 mmHg 83%
    19:00 +1°C° 0.1 mm 6 m/s 737 mmHg 84%
    20:00 +1°C° 0 mm 6 m/s 737 mmHg 81%
    21:00 +1°C° 0 mm 6 m/s 736 mmHg 78%
    22:00 +1°C° 0 mm 6 m/s 736 mmHg 75%
    23:00 +1°C° 0 mm 6 m/s 736 mmHg 75%

    Demain, 1 Mars, Dimanche

    Heure Température Précipitation Vent Pression Humidité
    00:00 +1°C° 0 mm 6 m/s 736 mmHg 75%
    01:00 +2°C° 0 mm 6 m/s 736 mmHg 74%
    02:00 +2°C° 0.2 mm 6 m/s 735 mmHg 78%
    03:00 +2°C° 0.2 mm 6 m/s 735 mmHg 81%
    04:00 +3°C° 0.2 mm 5 m/s 735 mmHg 85%
    05:00 +3°C° 0 mm 6 m/s 736 mmHg 85%
    06:00 +3°C° 0 mm 6 m/s 736 mmHg 84%
    07:00 +3°C° 0 mm 6 m/s 736 mmHg 84%
    08:00 +4°C° 0 mm 6 m/s 736 mmHg 83%
    09:00 +4°C° 0 mm 6 m/s 737 mmHg 82%
    10:00 +5°C° 0 mm 5 m/s 737 mmHg 81%
    11:00 +6°C° 0 mm 5 m/s 737 mmHg 78%
    12:00 +7°C° 0 mm 5 m/s 737 mmHg 74%
    13:00 +8°C° 0 mm 5 m/s 737 mmHg 70%
    14:00 +7°C° 0 mm 5 m/s 736 mmHg 70%
    15:00 +7°C° 0 mm 5 m/s 736 mmHg 69%
    16:00 +7°C° 0 mm 4 m/s 736 mmHg 69%
    17:00 +7°C° 0.1 mm 4 m/s 736 mmHg 73%
    18:00 +6°C° 0.1 mm 4 m/s 736 mmHg 77%
    19:00 +6°C° 0.1 mm 5 m/s 736 mmHg 80%
    20:00 +5°C° 0.2 mm 4 m/s 737 mmHg 82%
    21:00 +5°C° 0.2 mm 4 m/s 737 mmHg 84%
    22:00 +5°C° 0.2 mm 4 m/s 737 mmHg 86%
    23:00 +4°C° 0 mm 4 m/s 737 mmHg 88%

    Après-demain, 2 Mars, Lundi

    Heure Température Précipitation Vent Pression Humidité
    00:00 +3°C° 0 mm 4 m/s 737 mmHg 91%
    01:00 +3°C° 0 mm 3 m/s 737 mmHg 93%
    02:00 +2°C° 0 mm 3 m/s 736 mmHg 94%
    03:00 +2°C° 0 mm 3 m/s 736 mmHg 94%
    04:00 +1°C° 0 mm 3 m/s 735 mmHg 95%
    05:00 +1°C° 0 mm 3 m/s 735 mmHg 95%
    06:00 +1°C° 0 mm 3 m/s 735 mmHg 96%
    07:00 +1°C° 0 mm 3 m/s 735 mmHg 96%
    08:00 +3°C° 0 mm 3 m/s 734 mmHg 91%
    09:00 +4°C° 0 mm 4 m/s 734 mmHg 86%
    10:00 +5°C° 0 mm 5 m/s 733 mmHg 81%
    11:00 +5°C° 0.5 mm 5 m/s 732 mmHg 84%
    12:00 +5°C° 0.5 mm 4 m/s 732 mmHg 86%
    13:00 +5°C° 0.5 mm 4 m/s 731 mmHg 89%
    14:00 +5°C° 1.5 mm 4 m/s 731 mmHg 90%
    15:00 +4°C° 1.5 mm 3 m/s 731 mmHg 91%
    16:00 +4°C° 1.5 mm 3 m/s 731 mmHg 92%
    17:00 +3°C° 0 mm 3 m/s 731 mmHg 92%
    18:00 +4°C° 0 mm 2 m/s 731 mmHg 93%
    19:00 +4°C° 0 mm 2 m/s 732 mmHg 93%
    20:00 +4°C° 0 mm 2 m/s 733 mmHg 90%
    21:00 +4°C° 0 mm 2 m/s 733 mmHg 88%
    22:00 +3°C° 0 mm 2 m/s 734 mmHg 85%
    23:00 +3°C° 0 mm 2 m/s 734 mmHg 86%

    3 Mars, Mardi

    Heure Température Précipitation Vent Pression Humidité
    00:00 +3°C° 0 mm 2 m/s 735 mmHg 86%
    01:00 +2°C° 0 mm 2 m/s 735 mmHg 86%
    02:00 +3°C° 0 mm 2 m/s 735 mmHg 87%
    03:00 +2°C° 0 mm 3 m/s 734 mmHg 87%
    04:00 +2°C° 0 mm 3 m/s 734 mmHg 87%
    05:00 +2°C° 0 mm 3 m/s 734 mmHg 85%
    06:00 +1°C° 0 mm 4 m/s 734 mmHg 84%
    07:00 +3°C° 0 mm 4 m/s 734 mmHg 83%
    08:00 +3°C° 0 mm 5 m/s 734 mmHg 82%
    09:00 +5°C° 0 mm 5 m/s 734 mmHg 81%
    10:00 +6°C° 0 mm 5 m/s 734 mmHg 80%
    11:00 +7°C° 0.1 mm 5 m/s 734 mmHg 77%
    12:00 +8°C° 0.1 mm 5 m/s 734 mmHg 74%
    13:00 +9°C° 0.1 mm 5 m/s 734 mmHg 72%
    14:00 +10°C° 0 mm 4 m/s 734 mmHg 75%
    15:00 +9°C° 0 mm 3 m/s 734 mmHg 78%
    16:00 +9°C° 0 mm 2 m/s 733 mmHg 80%
    17:00 +9°C° 0 mm 2 m/s 734 mmHg 83%
    18:00 +9°C° 0 mm 1 m/s 734 mmHg 85%
    19:00 +9°C° 0 mm 1 m/s 734 mmHg 87%
    20:00 +8°C° 0.3 mm 1 m/s 734 mmHg 89%
    21:00 +8°C° 0.3 mm 1 m/s 735 mmHg 92%
    22:00 +7°C° 0.3 mm 2 m/s 735 mmHg 95%
    23:00 +7°C° 0.5 mm 2 m/s 735 mmHg 95%

    4 Mars, Mercredi

    Heure Température Précipitation Vent Pression Humidité
    00:00 +6°C° 0.5 mm 2 m/s 735 mmHg 96%
    01:00 +5°C° 0.5 mm 3 m/s 735 mmHg 96%
    02:00 +5°C° 0.5 mm 3 m/s 735 mmHg 96%
    03:00 +5°C° 0.5 mm 3 m/s 735 mmHg 95%
    04:00 +5°C° 0.5 mm 4 m/s 734 mmHg 95%
    05:00 +4°C° 1.2 mm 4 m/s 734 mmHg 95%
    06:00 +3°C° 1.2 mm 5 m/s 734 mmHg 94%
    07:00 +3°C° 1.2 mm 5 m/s 735 mmHg 94%
    08:00 +3°C° 0.8 mm 5 m/s 735 mmHg 93%
    09:00 +3°C° 0.8 mm 6 m/s 735 mmHg 92%
    10:00 +3°C° 0.8 mm 6 m/s 735 mmHg 92%
    11:00 +3°C° 0.6 mm 6 m/s 735 mmHg 91%
    12:00 +3°C° 0.6 mm 6 m/s 735 mmHg 91%
    13:00 +3°C° 0.6 mm 7 m/s 734 mmHg 90%
    14:00 +3°C° 0.8 mm 7 m/s 734 mmHg 91%
    15:00 +3°C° 0.8 mm 7 m/s 734 mmHg 91%
    16:00 +3°C° 0.8 mm 7 m/s 734 mmHg 91%
    17:00 +2°C° 1.3 mm 7 m/s 734 mmHg 91%
    18:00 +1°C° 1.3 mm 8 m/s 734 mmHg 92%
    19:00 +1°C° 1.3 mm 8 m/s 734 mmHg 92%
    20:00 +1°C° 1.1 mm 9 m/s 734 mmHg 93%
    21:00 0°C° 1.1 mm 9 m/s 734 mmHg 93%
    22:00 0°C° 1.1 mm 9 m/s 734 mmHg 94%
    23:00 0°C° 0.9 mm 9 m/s 734 mmHg 93%

    5 Mars, Jeudi

    Heure Température Précipitation Vent Pression Humidité
    00:00 0°C° 0.9 mm 9 m/s 734 mmHg 93%
    01:00 0°C° 0.9 mm 8 m/s 734 mmHg 92%
    02:00 0°C° 0.3 mm 8 m/s 734 mmHg 90%
    03:00 0°C° 0.3 mm 8 m/s 734 mmHg 88%
    04:00 0°C° 0.3 mm 7 m/s 734 mmHg 86%
    05:00 0°C° 0.1 mm 7 m/s 735 mmHg 85%
    06:00 -1°C° 0.1 mm 7 m/s 735 mmHg 85%
    07:00 -1°C° 0.1 mm 7 m/s 735 mmHg 84%
    08:00 -1°C° 0 mm 6 m/s 736 mmHg 82%
    09:00 +1°C° 0 mm 6 m/s 736 mmHg 81%
    10:00 +1°C° 0 mm 6 m/s 737 mmHg 79%
    11:00 +1°C° 0 mm 6 m/s 737 mmHg 76%
    12:00 +2°C° 0 mm 6 m/s 737 mmHg 73%
    13:00 +3°C° 0 mm 6 m/s 737 mmHg 70%
    14:00 +3°C° 0 mm 5 m/s 737 mmHg 68%
    15:00 +3°C° 0 mm 5 m/s 737 mmHg 67%
    16:00 +4°C° 0 mm 4 m/s 737 mmHg 65%
    17:00 +3°C° 0 mm 4 m/s 738 mmHg 69%
    18:00 +2°C° 0 mm 3 m/s 738 mmHg 73%
    19:00 +2°C° 0 mm 2 m/s 738 mmHg 76%
    20:00 +2°C° 0 mm 2 m/s 738 mmHg 78%
    21:00 +1°C° 0 mm 3 m/s 738 mmHg 79%
    22:00 +1°C° 0 mm 3 m/s 738 mmHg 80%
    23:00 +1°C° 0 mm 3 m/s 738 mmHg 84%
    Voir plus